Weather in Tesov

Ukraine / Rovno District     50°30′29″N   26°37′45″E
temp.,
°C
wind,
m/s
gust,
m/s
humid.,
%
clouds,
%
prec.,
mm/h
press.,
hPa
HPBL,
m
11 april, sun
sun1100:00+6s411655 0.0 1024179
03:00+5s49645 0.0 1025158
06:00+4s47665 0.0 1025106
09:00+8s47565 0.0 1026231
12:00+13sse68396 0.0 10261074
15:00+15sse67350 0.0 10251397
18:00+14sse57410 0.0 10241079
21:00+9se411584 0.0 1025180
12 april, mon
mon1200:00+6se410635 0.0 1026188
03:00+5se410654 0.0 1026152
06:00+4se486830 0.0 1025133
09:00+8sse475788 0.0 1025262
12:00+14sse45392 0.0 10231062
15:00+16sse443226 0.0 10211405
18:00+16se35381 0.0 1020771
21:00+10se33535 0.0 102130
13 april, tue
tue1300:00+8se34625 0.0 102145
03:00+7sse22695 0.0 102018
06:00+7sse11695 0.0 102010
09:00+11ese11585 0.0 1020156
12:00+15ene234571 0.0 1018911
15:00+17ne2336100 0.0 10171515
18:00+16e3448100 0.0 1015327
21:00+11e3685100 0.0 1016145
14 april, wed
wed1400:00+10e1192100 0.4 101535
03:00+10nw2496100 2.1 1014240
06:00+9nnw3496100 1.3 1013275
09:00+8nnw2395100 2.5 1014201
12:00+8ene1294100 1.1 1013275
15:00+8se5892100 1.6 1013550
18:00+8sse3791100 0.4 1013414
21:00+8se2693100 0.6 1014304
15 april, thu
thu1500:00+8se2494100 0.0 1014112
03:00+7se2294100 0.1 101450
06:00+7ese2293100 0.0 101430
09:00+8ene2386100 0.1 1015177
12:00+12e4567100 0.6 10151156
15:00+9ese3585100 1.3 1016382
18:00+10e1279100 0.1 1015386
21:00+8nnw1186100 0.1 101617